| time (UTC) | temp F | wind direction | speed MPH | gust MPH | rain 1hr in | rain 24hr in | rain mn in | humidity % | barometer mb |
| 20260505101604 | 43 | 304 | 2.0 | 7.0 | 0.00 | 0.01 | 0.01 | 67 | 1010.1 |
| 20260505100058 | 43 | 194 | 1.0 | 4.0 | 0.00 | 0.01 | 0.01 | 66 | 1010.0 |
| 20260505094556 | 43 | 207 | 2.0 | 6.0 | 0.00 | 0.01 | 0.01 | 65 | 1010.0 |
| 20260505093057 | 43 | 211 | 0.0 | 4.0 | 0.00 | 0.01 | 0.01 | 66 | 1010.0 |
| 20260505091600 | 44 | 320 | 1.0 | 5.0 | 0.00 | 0.01 | 0.01 | 66 | 1010.0 |
| 20260505090100 | 43 | 289 | 1.0 | 4.0 | 0.00 | 0.01 | 0.01 | 67 | 1010.0 |
| 20260505084605 | 43 | 198 | 0.0 | 4.0 | 0.00 | 0.02 | 0.01 | 70 | 1010.1 |
| 20260505083112 | 42 | 0 | 0.0 | 1.0 | 0.00 | 0.02 | 0.01 | 71 | 1010.3 |
| 20260505081608 | 42 | 0 | 0.0 | 0.0 | 0.00 | 0.02 | 0.01 | 71 | 1010.4 |
| 20260505080105 | 43 | 0 | 0.0 | 3.0 | 0.00 | 0.02 | 0.01 | 72 | 1010.5 |
| 20260505074600 | 43 | 0 | 0.0 | 0.0 | 0.00 | 0.02 | 0.01 | 70 | 1010.4 |
| 20260505073102 | 44 | 0 | 0.0 | 0.0 | 0.00 | 0.02 | 0.01 | 68 | 1010.2 |
| 20260505071558 | 45 | 0 | 0.0 | 2.0 | 0.00 | 0.02 | 0.01 | 67 | 1010.4 |
| 20260505070107 | 45 | 0 | 0.0 | 3.0 | 0.00 | 0.02 | 0.01 | 69 | 1010.2 |
| 20260505064653 | 45 | 331 | 1.0 | 5.0 | 0.01 | 0.02 | 0.01 | 68 | 1010.2 |
| 20260505063101 | 44 | 0 | 0.0 | 2.0 | 0.01 | 0.02 | 0.01 | 75 | 1010.0 |
| 20260505061625 | 44 | 0 | 0.0 | 0.0 | 0.01 | 0.02 | 0.01 | 74 | 1010.0 |
| 20260505054601 | 47 | 0 | 0.0 | 0.0 | 0.00 | 0.01 | 0.01 | 63 | 1009.8 |
| 20260505053059 | 48 | 0 | 0.0 | 0.0 | 0.00 | 0.01 | 0.01 | 63 | 1009.6 |
| 20260505051600 | 49 | 0 | 0.0 | 0.0 | 0.00 | 0.01 | 0.01 | 61 | 1009.6 |
| 20260505050109 | 49 | 0 | 0.0 | 0.0 | 0.00 | 0.01 | 0.01 | 62 | 1009.6 |
| 20260505041608 | 52 | 0 | 0.0 | 2.0 | 0.00 | 0.01 | 0.01 | 55 | 1009.2 |
| 20260505040106 | 54 | 0 | 0.0 | 2.0 | 0.00 | 0.01 | 0.01 | 53 | 1008.9 |
| 20260505034612 | 54 | 0 | 0.0 | 2.0 | 0.00 | 0.01 | 0.01 | 55 | 1008.5 |
| 20260505033058 | 54 | 0 | 0.0 | 0.0 | 0.00 | 0.01 | 0.01 | 52 | 1008.2 |
| 20260505031608 | 55 | 0 | 0.0 | 0.0 | 0.00 | 0.01 | 0.01 | 49 | 1007.9 |
| 20260505030119 | 57 | 0 | 0.0 | 0.0 | 0.00 | 0.01 | 0.01 | 46 | 1007.8 |
| 20260505024611 | 58 | 0 | 0.0 | 0.0 | 0.00 | 0.01 | 0.01 | 44 | 1007.7 |
| 20260505023100 | 59 | 0 | 0.0 | 0.0 | 0.00 | 0.01 | 0.01 | 43 | 1007.6 |
| 20260505021601 | 61 | 0 | 0.0 | 0.0 | 0.00 | 0.01 | 0.01 | 40 | 1007.5 |
| 20260505020107 | 63 | 0 | 0.0 | 0.0 | 0.00 | 0.01 | 0.01 | 34 | 1007.3 |
| 20260505014600 | 65 | 0 | 0.0 | 1.0 | 0.00 | 0.01 | 0.01 | 33 | 1007.3 |
| 20260505013058 | 66 | 0 | 0.0 | 1.0 | 0.00 | 0.01 | 0.01 | 32 | 1007.4 |
| 20260505011602 | 67 | 0 | 0.0 | 2.0 | 0.00 | 0.01 | 0.01 | 32 | 1007.4 |
| 20260505010112 | 68 | 0 | 0.0 | 4.0 | 0.00 | 0.01 | 0.01 | 31 | 1007.3 |
| 20260505004629 | 68 | 154 | 0.0 | 2.0 | 0.00 | 0.01 | 0.01 | 30 | 1007.4 |
| 20260505003101 | 66 | 138 | 0.0 | 2.0 | 0.00 | 0.01 | 0.01 | 32 | 1007.5 |
| 20260505001557 | 65 | 0 | 0.0 | 3.0 | 0.00 | 0.01 | 0.01 | 33 | 1007.6 |
| 20260505000112 | 65 | 213 | 0.0 | 4.0 | 0.00 | 0.01 | 0.01 | 32 | 1007.6 |
| 20260504234558 | 66 | 346 | 0.0 | 5.0 | 0.00 | 0.01 | 0.01 | 31 | 1007.5 |
| 20260504233059 | 66 | 0 | 1.0 | 5.0 | 0.00 | 0.01 | 0.01 | 34 | 1007.5 |
| 20260504231625 | 67 | 349 | 1.0 | 9.0 | 0.00 | 0.01 | 0.01 | 36 | 1007.6 |
| 20260504230059 | 70 | 347 | 3.0 | 7.0 | 0.00 | 0.01 | 0.01 | 27 | 1007.3 |
| 20260504224606 | 69 | 0 | 1.0 | 4.0 | 0.00 | 0.01 | 0.01 | 32 | 1007.3 |
| 20260504223058 | 68 | 0 | 1.0 | 4.0 | 0.00 | 0.01 | 0.01 | 32 | 1007.7 |
| 20260504221645 | 69 | 44 | 0.0 | 3.0 | 0.00 | 0.01 | 0.01 | 31 | 1007.7 |
| 20260504220058 | 70 | 305 | 3.0 | 9.0 | 0.00 | 0.01 | 0.01 | 29 | 1007.9 |
| 20260504214600 | 71 | 28 | 0.0 | 3.0 | 0.00 | 0.01 | 0.01 | 34 | 1008.0 |
| 20260504213102 | 69 | 351 | 0.0 | 4.0 | 0.00 | 0.01 | 0.01 | 31 | 1008.3 |
| 20260504211557 | 70 | 111 | 0.0 | 4.0 | 0.00 | 0.01 | 0.01 | 29 | 1008.6 |
| 20260504210100 | 68 | 0 | 0.0 | 5.0 | 0.00 | 0.01 | 0.01 | 31 | 1008.8 |
| 20260504204558 | 68 | 0 | 0.0 | 5.0 | 0.00 | 0.01 | 0.01 | 31 | 1009.1 |
| 20260504203057 | 66 | 0 | 0.0 | 3.0 | 0.00 | 0.01 | 0.01 | 34 | 1009.3 |
| 20260504201602 | 67 | 18 | 2.0 | 9.0 | 0.00 | 0.01 | 0.01 | 34 | 1009.6 |
| 20260504200056 | 68 | 0 | 1.0 | 4.0 | 0.00 | 0.01 | 0.01 | 30 | 1009.7 |
| 20260504194605 | 69 | 300 | 3.0 | 11.0 | 0.00 | 0.01 | 0.01 | 29 | 1009.8 |
| 20260504193059 | 69 | 300 | 2.0 | 9.0 | 0.00 | 0.01 | 0.01 | 29 | 1009.8 |
| 20260504191622 | 69 | 201 | 1.0 | 8.0 | 0.00 | 0.01 | 0.01 | 27 | 1010.1 |
| 20260504184606 | 69 | 304 | 2.0 | 7.0 | 0.00 | 0.01 | 0.01 | 28 | 1010.3 |
| 20260504183056 | 69 | 344 | 2.0 | 6.0 | 0.00 | 0.01 | 0.01 | 28 | 1010.3 |
| 20260504181559 | 68 | 349 | 1.0 | 8.0 | 0.00 | 0.01 | 0.01 | 28 | 1010.5 |
| 20260504180056 | 68 | 324 | 1.0 | 6.0 | 0.00 | 0.01 | 0.01 | 27 | 1010.6 |
| 20260504174559 | 67 | 0 | 0.0 | 8.0 | 0.00 | 0.01 | 0.01 | 29 | 1010.8 |
| 20260504173104 | 67 | 331 | 2.0 | 5.0 | 0.00 | 0.01 | 0.01 | 29 | 1010.9 |
| 20260504171558 | 66 | 336 | 1.0 | 4.0 | 0.00 | 0.01 | 0.01 | 29 | 1010.9 |
| 20260504140106 | 42 | 360 | 2.0 | 8.0 | 0.00 | 0.01 | 0.01 | 61 | 1012.7 |